Terminal Aerodrome Forecast
Issued by NWS Boise, ID

Home | Current Version | Previous Version | Text Only | Print | Product List | Glossary On
Versions: 1 2 3 4 5 6 7 8 9 10 11 12 13 14 15 16 17 18 19 20 21 22 23 24
827
FTUS45 KBOI 271733
TAFBNO
TAF
KBNO 271733Z 2718/2818 25012KT P6SM FEW250
     FM271930 26012G20KT P6SM FEW250
     FM280300 27007KT P6SM SKC=

USA.gov is the U.S. government's official web portal to all federal, state and local government web resources and services.